Tracking 18795 objects as of 21-August-2017
HD Live streaming from Space Station
objects crossing your sky now

ARIANE 5 DEB (SYLDA)

Track ARIANE 5 DEB (SYLDA) now!


NORAD ID: 28914
Int'l Code: 2005-049D
Perigee: 642.3 km
Apogee: 36,045.0 km
Inclination: 4.2 °
Period: 644.5 minutes
Semi major axis: 24714 km
RCS: 22.4158 m2 (large)
Launch date: December 21, 2005
Source: France (FR)
Launch site: FRENCH GUIANA (FRGUI)

Note: This is SATELLITE DEBRIS
Your satellite tracking list
Your tracking list is empty





NASA's NSSDC Master Catalog

Two Line Element Set (TLE):
1 28914U 05049D   17232.22412098 -.00000131 +00000-0 +23067-2 0  9991
2 28914 004.2012 091.8247 7162292 081.9415 154.0908 02.23445360095193
Source of the keplerian elements: AFSPC